Weather History for Fort Meade, MD

Change the Weather History Date:

Wednesday, January 30, 2013

  Actual Average (KBWI) Record (KBWI)
Temperature  
Mean Temperature 53 °F 33 °F  
Max Temperature 69 °F 42 °F 72 °F (1914)
Min Temperature 37 °F 25 °F -4 °F (1873)
Degree Days  
Heating Degree Days 12 32  
Month to date heating degree days 960  
Since 1 July heating degree days 2741  
Cooling Degree Days 0 0  
Month to date cooling degree days 0  
Year to date cooling degree days 0  
Growing Degree Days 3 (Base 50)    
Moisture  
Dew Point 50 °F    
Average Humidity 86    
Maximum Humidity 100    
Minimum Humidity 68    
Precipitation  
Precipitation 0.00 in 0.11 in 1.49 in (1939)
Month to date precipitation 2.95  
Year to date precipitation 2.95  
Snow  
Snow 0.00 in 0.30 in 9.00 in (1930)
Month to date snowfall 6.5  
Since 1 July snowfall 9.9  
Snow Depth -    
Sea Level Pressure  
Sea Level Pressure 29.71 in    
Wind  
Wind Speed 5 mph (SSE)    
Max Wind Speed 18 mph    
Max Gust Speed 32 mph    
Visibility 8 miles    
Events      
T = Trace of Precipitation, MM = Missing Value Source: NWS Daily Summary

Daily Weather History Graph

Daily Weather History Graph

Search for Another Location

Airport:

Trip Planner

Search our weather history database for the weather conditions in past years. The results will help you decide how hot, cold, wet, or windy it might be!

Date:

Astronomy

Jan. 30, 2013 Rise Set
Actual Time 7:15 AM EST 5:26 PM EST
Civil Twilight 6:46 AM EST 5:54 PM EST
Nautical Twilight 6:14 AM EST 6:26 PM EST
Astronomical Twilight 5:43 AM EST 6:57 PM EST
Moon 9:20 PM EST (1/30) 8:44 AM EST (1/30)
Length of Visible Light 11h 07m
Length of Day
10h 10m
Waning Gibbous, 88% of the Moon is Illuminated
Jan 30
Waning Gibbous
Feb 3
Last Quarter
Feb 10
New
Feb 17
First Quarter
Feb 25
Full

Hourly Weather History & Observations

Time (EST) Temp. Windchill Dew Point Humidity Pressure Visibility Wind Dir Wind Speed Gust Speed Precip Events Conditions
12:00 AM 41.0 °F - 37.4 °F 87% 30.01 in 5.0 mi Calm Calm - N/A   Clear
12:21 AM 39.2 °F - 37.4 °F 93% 30.01 in 5.0 mi Calm Calm - N/A   Clear
12:42 AM 39.2 °F - 37.4 °F 93% 30.00 in 3.0 mi Calm Calm - N/A   Clear
1:03 AM 39.2 °F - 37.4 °F 93% 29.99 in 4.0 mi Calm Calm - N/A   Clear
1:24 AM 37.4 °F - 37.4 °F 100% 29.98 in 4.0 mi Calm Calm - N/A   Clear
1:45 AM 39.2 °F - 37.4 °F 93% 29.97 in 4.0 mi Calm Calm - N/A   Clear
2:06 AM 37.4 °F 34.9 °F 35.6 °F 93% 29.96 in 5.0 mi SE 3.5 mph - N/A   Clear
2:27 AM 37.4 °F - 35.6 °F 93% 29.94 in 5.0 mi Calm Calm - N/A   Clear
2:48 AM 37.4 °F - 35.6 °F 93% 29.94 in 7.0 mi Calm Calm - N/A   Clear
3:12 AM 37.4 °F - 35.6 °F 93% 29.93 in 5.0 mi Calm Calm - N/A   Clear
3:33 AM 39.2 °F - 37.4 °F 93% 29.92 in 5.0 mi Calm Calm - N/A   Scattered Clouds
3:54 AM 39.2 °F - 37.4 °F 93% 29.91 in 7.0 mi Calm Calm - N/A   Scattered Clouds
4:15 AM 41.0 °F - 37.4 °F 87% 29.90 in 5.0 mi Calm Calm - N/A   Clear
4:57 AM 39.2 °F 37.0 °F 37.4 °F 93% 29.89 in 4.0 mi SSE 3.5 mph - N/A   Clear
5:18 AM 37.4 °F 34.9 °F 35.6 °F 93% 29.88 in 5.0 mi South 3.5 mph - N/A   Clear
6:00 AM 41.0 °F - 37.4 °F 87% 29.86 in 5.0 mi Calm Calm - N/A   Scattered Clouds
6:21 AM 42.8 °F - 41.0 °F 93% 29.85 in 3.0 mi Calm Calm - N/A   Clear
6:45 AM 41.0 °F 39.0 °F 39.2 °F 93% 29.84 in 7.0 mi South 3.5 mph - N/A   Clear
7:06 AM 42.8 °F 41.1 °F 41.0 °F 93% 29.85 in 5.0 mi South 3.5 mph - N/A   Clear
7:27 AM 44.6 °F 42.2 °F 42.8 °F 93% 29.85 in 4.0 mi SSW 4.6 mph - N/A   Scattered Clouds
7:48 AM 51.8 °F - 51.8 °F 100% 29.85 in 10.0 mi SSW 5.8 mph - N/A   Overcast
8:09 AM 55.4 °F - 53.6 °F 94% 29.84 in 10.0 mi South 5.8 mph - N/A   Overcast
8:30 AM 59.0 °F - 53.6 °F 82% 29.84 in 10.0 mi South 6.9 mph - N/A   Overcast
8:51 AM 59.0 °F - 55.4 °F 88% 29.82 in 10.0 mi South 9.2 mph 16.1 mph N/A   Overcast
9:12 AM 60.8 °F - 55.4 °F 82% 29.80 in 10.0 mi South 9.2 mph 20.7 mph N/A   Mostly Cloudy
9:33 AM 62.6 °F - 55.4 °F 77% 29.80 in 10.0 mi SSW 12.7 mph 21.9 mph N/A   Mostly Cloudy
9:54 AM 64.4 °F - 57.2 °F 77% 29.79 in 10.0 mi SSW 10.4 mph 21.9 mph N/A   Overcast
10:15 AM 66.2 °F - 57.2 °F 73% 29.77 in 10.0 mi SSW 16.1 mph 29.9 mph N/A   Scattered Clouds
10:36 AM 66.2 °F - 57.2 °F 73% 29.76 in 10.0 mi SSW 15.0 mph 32.2 mph N/A   Clear
10:57 AM 68.0 °F - 57.2 °F 68% 29.76 in 10.0 mi South 15.0 mph 29.9 mph N/A   Mostly Cloudy
11:21 AM 66.2 °F - 57.2 °F 73% 29.75 in 10.0 mi SSW 13.8 mph 23.0 mph N/A   Overcast
11:42 AM 68.0 °F - 57.2 °F 68% 29.73 in 10.0 mi South 16.1 mph 23.0 mph N/A   Overcast
12:03 PM 68.0 °F - 57.2 °F 68% 29.70 in 10.0 mi South 18.4 mph 27.6 mph N/A   Overcast
12:24 PM 68.0 °F - 57.2 °F 68% 29.69 in 10.0 mi South 18.4 mph 26.5 mph N/A   Overcast
12:45 PM 68.0 °F - 59.0 °F 73% 29.68 in 10.0 mi SSW 17.3 mph 28.8 mph N/A   Overcast
1:06 PM 68.0 °F - 59.0 °F 73% 29.66 in 10.0 mi South 15.0 mph 26.5 mph N/A   Overcast
1:27 PM 68.0 °F - 59.0 °F 73% 29.65 in 10.0 mi South 11.5 mph 25.3 mph N/A   Overcast
1:48 PM 68.0 °F - 59.0 °F 73% 29.64 in 10.0 mi South 18.4 mph 26.5 mph N/A   Overcast
2:09 PM 69.8 °F - 59.0 °F 68% 29.64 in 10.0 mi SSW 16.1 mph 23.0 mph N/A   Overcast
2:30 PM 69.8 °F - 59.0 °F 68% 29.63 in 10.0 mi South 13.8 mph 24.2 mph N/A   Overcast
2:51 PM 69.8 °F - 59.0 °F 68% 29.62 in 10.0 mi South 18.4 mph 24.2 mph N/A   Overcast
3:12 PM 69.8 °F - 59.0 °F 68% 29.62 in 10.0 mi South 13.8 mph 23.0 mph N/A   Overcast
3:57 PM 69.8 °F - 59.0 °F 68% 29.62 in 10.0 mi SSW 9.2 mph 18.4 mph N/A   Overcast
4:18 PM 69.8 °F - 59.0 °F 68% 29.64 in 10.0 mi North 11.5 mph 16.1 mph N/A   Overcast
4:39 PM 59.0 °F - 55.4 °F 88% 29.63 in 7.0 mi North 6.9 mph - N/A   Mostly Cloudy
5:00 PM 57.2 °F - 55.4 °F 94% 29.63 in 10.0 mi NNE 3.5 mph - N/A   Mostly Cloudy
5:21 PM 57.2 °F - 53.6 °F 88% 29.62 in 10.0 mi NNE 3.5 mph - N/A   Overcast
5:42 PM 57.2 °F - 53.6 °F 88% 29.61 in 10.0 mi ENE 4.6 mph - N/A   Overcast
6:03 PM 57.2 °F - 53.6 °F 88% 29.59 in 10.0 mi East 11.5 mph - N/A   Overcast
6:24 PM 55.4 °F - 53.6 °F 94% 29.57 in 10.0 mi East 8.1 mph - N/A   Overcast
6:45 PM 55.4 °F - 53.6 °F 94% 29.55 in 10.0 mi East 8.1 mph - N/A   Overcast
7:06 PM 55.4 °F - 53.6 °F 94% 29.53 in 10.0 mi East 4.6 mph - N/A   Overcast
7:27 PM 55.4 °F - 53.6 °F 94% 29.51 in 10.0 mi East 3.5 mph - N/A   Overcast
7:48 PM 55.4 °F - 53.6 °F 94% 29.49 in 10.0 mi Calm Calm - N/A   Overcast
8:09 PM 55.4 °F - 53.6 °F 94% 29.51 in 10.0 mi SW 10.4 mph 20.7 mph N/A   Overcast
8:30 PM 57.2 °F - 53.6 °F 88% 29.53 in 3.0 mi West 11.5 mph 20.7 mph N/A   Overcast
8:54 PM 55.4 °F - 53.6 °F 94% 29.52 in 2.0 mi Calm Calm - N/A   Overcast
9:15 PM 55.4 °F - 53.6 °F 94% 29.48 in 7.0 mi East 6.9 mph - N/A   Mostly Cloudy
9:36 PM 55.4 °F - 53.6 °F 94% 29.47 in 1.8 mi East 8.1 mph - N/A   Mostly Cloudy
9:57 PM 55.4 °F - 53.6 °F 94% 29.43 in 4.0 mi East 10.4 mph - N/A   Mostly Cloudy
10:18 PM 55.4 °F - 53.6 °F 94% 29.42 in 2.5 mi ESE 4.6 mph - N/A   Overcast
10:39 PM 55.4 °F - 53.6 °F 94% 29.38 in 7.0 mi East 11.5 mph - N/A   Overcast
11:00 PM 55.4 °F - 53.6 °F 94% 29.34 in 4.0 mi East 10.4 mph - N/A   Overcast
11:21 PM 55.4 °F - 53.6 °F 94% 29.31 in 4.0 mi SE 9.2 mph - N/A   Overcast
11:42 PM 55.4 °F - 53.6 °F 94% 29.28 in 7.0 mi SE 10.4 mph - N/A   Overcast